QPF
0.01 0.07 0.09 0.15 0.19 0.14 0.06 0.05 0.02 0.02 0.07 0.01 0.00 0.00 0.00 0.00 0.00 0.00 0.00 0.00 0.00 0.00 0.00 0.00 0.00 0.00 0.00 0.00 0.00 0.00 0.00 0.00
0.00 0.01 0.07 0.11 0.13 0.09 0.05 0.05 0.03 0.01 0.01 0.02 0.00 0.00 0.00 0.00 0.00 0.00 0.00 0.00 0.00 0.00 0.00 0.00 0.00 0.00 0.00 0.00 0.00 0.00 0.00 0.00
0.00 0.00 0.02 0.06 0.04 0.09 0.10 0.05 0.05 0.00 0.00 0.01 0.00 0.00 0.00 0.00 0.00 0.00 0.00 0.00 0.00 0.00 0.00 0.00 0.00 0.00 0.00 0.00 0.00 0.00 0.00 0.00
0.00 0.00 0.00 0.02 0.03 0.03 0.03 0.05 0.02 0.01 0.01 0.01 0.00 0.01 0.00 0.00 0.00 0.00 0.00 0.00 0.00 0.00 0.00 0.00 0.00 0.00 0.00 0.00 0.00 0.00 0.00 0.00
0.00 0.00 0.00 0.00 0.00 0.00 0.01 0.02 0.03 0.03 0.02 0.02 0.02 0.02 0.01 0.00 0.00 0.00 0.00 0.00 0.00 0.00 0.00 0.00 0.00 0.00 0.00 0.00 0.00 0.00 0.00 0.00
0.00 0.00 0.00 0.00 0.00 0.00 0.00 0.02 0.03 0.03 0.03 0.03 0.02 0.01 0.00 0.00 0.00 0.00 0.00 0.00 0.00 0.00 0.00 0.00 0.00 0.00 0.00 0.00 0.00 0.00 0.00 0.00
0.00 0.00 0.00 0.00 0.00 0.00 0.00 0.02 0.09 0.08 0.04 0.05 0.03 0.01 0.01 0.00 0.00 0.01 0.00 0.00 0.00 0.00 0.00 0.01 0.00 0.00 0.00 0.00 0.00 0.00 0.00 0.00
0.00 0.00 0.00 0.00 0.00 0.00 0.00 0.00 0.05 0.10 0.10 0.09 0.09 0.06 0.04 0.01 0.01 0.03 0.02 0.02 0.03 0.01 0.02 0.04 0.04 0.04 0.00 0.00 0.00 0.00 0.00 0.00
0.00 0.00 0.00 0.00 0.00 0.00 0.00 0.00 0.02 0.05 0.09 0.13 0.13 0.10 0.04 0.03 0.03 0.04 0.05 0.07 0.10 0.14 0.16 0.14 0.11 0.08 0.03 0.00 0.00 0.00 0.00 0.00
0.00 0.00 0.00 0.00 0.00 0.00 0.00 0.00 0.01 0.02 0.04 0.06 0.09 0.07 0.10 0.04 0.02 0.02 0.06 0.07 0.10 0.13 0.14 0.16 0.13 0.09 0.06 0.03 0.00 0.00 0.00 0.00
0.00 0.00 0.00 0.00 0.00 0.00 0.00 0.00 0.00 0.01 0.02 0.04 0.04 0.05 0.04 0.09 0.06 0.06 0.02 0.03 0.06 0.07 0.08 0.06 0.04 0.04 0.06 0.05 0.02 0.01 0.01 0.00
0.00 0.00 0.00 0.00 0.00 0.00 0.00 0.00 0.00 0.01 0.02 0.01 0.02 0.02 0.00 0.00 0.03 0.08 0.06 0.04 0.03 0.03 0.06 0.05 0.02 0.02 0.05 0.05 0.04 0.04 0.03 0.04
0.00 0.00 0.00 0.00 0.00 0.00 0.00 0.00 0.00 0.00 0.01 0.00 0.00 0.00 0.00 0.00 0.00 0.01 0.02 0.04 0.04 0.05 0.03 0.03 0.04 0.03 0.05 0.04 0.04 0.03 0.03 0.03
0.00 0.00 0.00 0.00 0.00 0.00 0.00 0.00 0.00 0.00 0.00 0.00 0.00 0.00 0.00 0.00 0.00 0.00 0.00 0.01 0.01 0.01 0.02 0.01 0.03 0.05 0.07 0.06 0.07 0.05 0.05 0.03
0.00 0.00 0.00 0.00 0.00 0.00 0.00 0.00 0.00 0.00 0.00 0.00 0.00 0.00 0.00 0.00 0.00 0.00 0.00 0.01 0.00 0.00 0.00 0.00 0.00 0.00 0.01 0.02 0.02 0.01 0.00 0.00
0.00 0.00 0.00 0.00 0.00 0.00 0.00 0.00 0.00 0.00 0.00 0.00 0.00 0.00 0.00 0.00 0.00 0.00 0.00 0.01 0.00 0.00 0.00 0.00 0.00 0.00 0.00 0.01 0.01 0.00 0.00 0.01
0.00 0.00 0.00 0.00 0.00 0.00 0.00 0.00 0.00 0.00 0.00 0.00 0.00 0.00 0.00 0.00 0.00 0.00 0.00 0.00 0.00 0.00 0.00 0.00 0.00 0.00 0.01 0.01 0.00 0.00 0.01 0.00
0.00 0.00 0.00 0.00 0.00 0.00 0.00 0.00 0.00 0.00 0.00 0.00 0.00 0.00 0.00 0.00 0.00 0.00 0.00 0.00 0.00 0.00 0.00 0.00 0.00 0.00 0.00 0.00 0.00 0.00 0.00 0.01
0.00 0.00 0.00 0.00 0.00 0.00 0.00 0.00 0.00 0.00 0.00 0.00 0.00 0.00 0.00 0.00 0.00 0.00 0.00 0.00 0.00 0.00 0.00 0.00 0.00 0.00 0.00 0.00 0.00 0.00 0.00 0.00
MSLP
1022.87 1022.26 1021.55 1019.49 1018.58 1018.59 1018.78 1019.27 1019.63 1019.88 1020.27 1020.63 1021.20 1021.98 1022.36 1022.85 1023.43 1023.65 1023.84 1024.40 1025.05 1025.50 1025.86 1026.50 1026.98 1027.29 1027.69 1028.15 1028.72 1029.23 1029.35 1029.66
1023.81 1023.21 1022.61 1021.28 1019.43 1018.71 1018.45 1018.93 1019.27 1019.84 1020.17 1020.28 1020.73 1021.46 1022.10 1022.59 1022.78 1023.40 1023.83 1024.09 1024.76 1025.35 1025.59 1026.23 1026.64 1026.85 1026.99 1027.70 1028.27 1028.99 1029.53 1029.85
1023.81 1023.35 1023.30 1023.00 1022.28 1021.14 1019.31 1018.71 1018.90 1019.04 1019.51 1019.74 1020.30 1020.93 1021.40 1021.14 1022.37 1023.00 1023.55 1023.89 1024.21 1024.88 1025.32 1025.64 1026.20 1026.49 1026.87 1027.27 1027.65 1028.45 1029.00 1029.52
1024.56 1024.18 1024.00 1023.76 1023.24 1022.57 1021.71 1020.15 1018.62 1018.76 1019.34 1019.78 1020.09 1020.79 1021.15 1021.63 1021.59 1022.71 1023.14 1023.63 1023.83 1024.24 1024.78 1025.03 1025.63 1025.96 1026.27 1026.63 1027.05 1027.42 1028.02 1028.92
1025.35 1025.00 1024.62 1024.18 1023.80 1023.40 1022.27 1020.46 1018.37 1018.39 1018.90 1019.33 1019.42 1020.10 1020.44 1020.68 1021.23 1022.25 1022.51 1023.15 1023.42 1023.72 1024.16 1024.49 1024.86 1025.27 1025.73 1026.21 1026.60 1026.74 1027.33 1027.77
1025.96 1025.55 1025.40 1025.14 1024.37 1023.67 1022.64 1021.16 1018.46 1018.15 1018.46 1018.67 1018.87 1019.30 1019.80 1020.40 1021.07 1021.76 1022.03 1022.27 1022.60 1022.85 1023.36 1023.98 1024.45 1024.75 1025.04 1025.49 1026.12 1026.56 1026.79 1026.98
1026.65 1026.09 1025.66 1025.26 1024.84 1024.14 1022.95 1021.68 1019.38 1017.90 1018.07 1018.29 1018.34 1018.81 1019.42 1020.08 1020.60 1021.15 1021.03 1021.48 1021.91 1022.09 1022.42 1023.02 1023.40 1024.10 1024.60 1024.94 1025.32 1025.79 1026.07 1026.39
1027.21 1026.43 1025.85 1025.45 1025.06 1024.56 1023.82 1022.37 1020.34 1019.42 1017.88 1017.84 1018.08 1018.33 1018.96 1019.30 1019.79 1020.00 1020.55 1021.01 1021.14 1021.29 1021.54 1022.09 1022.54 1022.92 1023.44 1024.00 1024.55 1025.05 1025.48 1025.78
1027.88 1027.25 1026.64 1026.10 1025.58 1024.97 1024.10 1023.09 1021.52 1020.38 1019.40 1018.73 1018.26 1017.99 1018.21 1018.80 1019.35 1019.92 1020.32 1020.24 1020.29 1020.64 1021.03 1021.34 1021.52 1021.97 1022.66 1023.18 1023.56 1024.05 1024.55 1024.92
1028.23 1027.61 1027.05 1026.48 1025.91 1025.25 1024.65 1023.70 1022.44 1021.39 1020.42 1020.08 1019.36 1018.94 1018.11 1018.71 1018.85 1019.45 1019.66 1019.71 1019.81 1020.54 1020.80 1021.05 1021.16 1021.40 1021.63 1022.22 1022.56 1022.94 1023.43 1023.84
1028.55 1027.92 1027.22 1026.67 1026.25 1025.42 1024.76 1024.24 1022.82 1022.07 1021.07 1020.61 1020.54 1020.15 1018.77 1019.20 1019.58 1019.31 1019.16 1019.61 1019.16 1018.47 1020.11 1020.02 1020.53 1020.58 1021.24 1021.18 1021.77 1022.15 1022.75 1022.98
1028.75 1028.09 1027.42 1026.80 1026.52 1025.61 1024.75 1023.92 1023.22 1022.44 1022.02 1021.22 1020.73 1020.69 1020.55 1020.32 1019.55 1019.00 1018.93 1019.27 1019.31 1019.37 1019.44 1018.93 1019.22 1019.19 1020.64 1021.10 1021.45 1021.66 1021.96 1022.24
1028.86 1028.34 1027.53 1026.74 1026.47 1025.68 1024.73 1023.80 1023.40 1022.53 1021.88 1021.55 1021.26 1020.93 1020.44 1019.99 1019.85 1019.72 1019.81 1019.61 1019.05 1018.44 1018.87 1019.25 1020.21 1019.51 1018.90 1020.24 1020.64 1020.84 1021.08 1021.23
1028.78 1028.14 1027.53 1026.95 1026.43 1025.71 1025.06 1024.33 1023.60 1023.48 1021.81 1021.69 1021.40 1021.16 1020.82 1020.44 1020.36 1020.35 1020.06 1020.02 1019.75 1019.24 1018.52 1018.29 1018.74 1019.08 1019.11 1019.26 1019.68 1019.92 1020.08 1020.22
1028.63 1027.98 1027.27 1026.98 1026.75 1025.73 1024.97 1024.23 1024.18 1022.27 1022.18 1021.77 1021.56 1021.48 1021.33 1021.03 1020.70 1020.51 1020.27 1019.87 1019.57 1019.29 1019.10 1018.88 1018.61 1018.84 1018.89 1019.20 1019.13 1018.93 1019.10 1019.26
1028.58 1028.05 1027.37 1026.91 1026.09 1025.84 1025.68 1024.86 1022.78 1022.59 1022.16 1021.82 1021.17 1021.01 1020.97 1020.88 1020.94 1020.80 1020.33 1019.86 1019.42 1019.14 1018.89 1018.81 1018.67 1018.60 1018.58 1018.67 1018.65 1018.73 1018.60 1018.58
1028.66 1028.07 1027.48 1027.01 1026.31 1025.56 1024.53 1023.51 1022.95 1022.62 1022.17 1021.60 1021.06 1020.85 1020.73 1020.66 1020.62 1020.70 1020.52 1020.19 1019.74 1019.43 1019.23 1019.05 1018.81 1018.71 1018.69 1018.57 1018.51 1018.47 1018.29 1018.06
1028.37 1027.86 1027.35 1026.78 1026.25 1025.75 1025.02 1024.21 1023.20 1022.40 1021.91 1021.46 1021.07 1020.89 1020.67 1020.67 1020.58 1020.42 1020.33 1020.02 1019.76 1019.54 1019.41 1019.26 1019.15 1019.08 1019.32 1018.98 1018.64 1018.58 1018.02 1017.80
1028.57 1028.06 1027.43 1026.85 1026.34 1025.64 1024.80 1024.07 1023.57 1022.97 1022.40 1021.86 1021.52 1021.07 1020.75 1020.60 1020.50 1020.28 1020.23 1019.93 1019.39 1019.28 1019.23 1019.06 1019.18 1019.77 1019.78 1019.25 1018.61 1018.11 1017.75 1017.66
Thickness
5607 5615 5624 5645 5655 5655 5656 5653 5653 5654 5652 5652 5646 5644 5644 5645 5644 5646 5649 5645 5642 5641 5640 5636 5633 5631 5630 5628 5625 5622 5621 5619
5591 5599 5606 5620 5640 5651 5653 5650 5650 5648 5647 5648 5645 5643 5642 5640 5642 5642 5642 5642 5640 5638 5637 5634 5632 5631 5633 5629 5625 5620 5617 5614
5580 5589 5591 5596 5605 5618 5638 5646 5646 5649 5648 5649 5646 5643 5642 5644 5638 5636 5637 5639 5640 5636 5634 5634 5631 5629 5629 5627 5626 5619 5617 5614
5558 5570 5574 5580 5589 5598 5611 5628 5645 5644 5639 5637 5640 5637 5636 5639 5641 5636 5636 5632 5635 5635 5632 5632 5630 5629 5627 5626 5624 5622 5619 5613
5536 5546 5556 5565 5575 5584 5598 5617 5640 5644 5641 5638 5638 5634 5634 5640 5637 5629 5630 5627 5629 5630 5629 5628 5629 5627 5626 5623 5621 5621 5618 5616
5513 5524 5533 5544 5556 5571 5585 5603 5631 5638 5637 5638 5638 5637 5637 5632 5627 5625 5627 5629 5629 5629 5627 5623 5622 5622 5621 5621 5619 5615 5615 5615
5490 5502 5515 5527 5539 5553 5571 5588 5612 5629 5631 5633 5636 5635 5630 5628 5626 5625 5632 5630 5628 5629 5629 5625 5622 5617 5614 5615 5615 5614 5612 5611
5463 5482 5495 5508 5523 5536 5550 5570 5592 5605 5624 5628 5630 5630 5626 5627 5627 5625 5625 5625 5629 5631 5630 5626 5622 5619 5616 5614 5613 5610 5608 5608
5436 5454 5470 5486 5501 5518 5535 5550 5570 5585 5599 5609 5619 5626 5625 5625 5623 5620 5619 5623 5626 5625 5625 5624 5622 5620 5616 5614 5613 5610 5607 5607
5412 5429 5448 5465 5483 5500 5516 5533 5551 5565 5581 5589 5599 5607 5616 5613 5618 5613 5615 5619 5616 5612 5614 5617 5618 5617 5617 5614 5613 5612 5609 5608
5391 5407 5426 5446 5463 5483 5501 5516 5536 5549 5564 5574 5580 5580 5592 5595 5597 5605 5608 5606 5611 5603 5612 5614 5618 5613 5609 5613 5612 5611 5609 5609
5371 5384 5406 5427 5444 5467 5486 5506 5520 5536 5545 5559 5568 5572 5575 5581 5589 5596 5597 5601 5604 5604 5610 5608 5611 5611 5603 5604 5606 5607 5608 5607
5364 5370 5387 5413 5430 5452 5473 5493 5507 5523 5538 5545 5554 5560 5567 5573 5577 5579 5583 5589 5595 5605 5606 5606 5600 5605 5606 5602 5605 5609 5607 5606
5361 5369 5381 5399 5421 5440 5459 5478 5495 5505 5528 5535 5543 5549 5554 5561 5566 5568 5572 5578 5582 5589 5600 5606 5606 5603 5604 5606 5606 5606 5607 5607
5358 5371 5385 5397 5413 5438 5453 5471 5480 5505 5516 5525 5533 5538 5543 5547 5554 5559 5564 5570 5576 5580 5584 5591 5599 5597 5598 5598 5601 5605 5605 5606
5354 5370 5384 5398 5416 5430 5437 5451 5483 5496 5507 5517 5529 5534 5538 5541 5543 5548 5555 5560 5567 5573 5578 5581 5585 5589 5592 5595 5597 5597 5599 5600
5360 5372 5383 5398 5412 5429 5446 5463 5477 5488 5499 5511 5521 5528 5533 5535 5537 5539 5543 5548 5553 5558 5563 5568 5573 5577 5579 5584 5586 5590 5592 5594
5372 5382 5391 5401 5412 5424 5439 5454 5470 5485 5495 5504 5511 5516 5521 5524 5527 5529 5533 5538 5543 5546 5549 5553 5559 5562 5563 5567 5573 5577 5584 5586
5377 5386 5394 5403 5411 5422 5437 5450 5460 5472 5482 5491 5499 5506 5510 5514 5517 5520 5522 5526 5534 5536 5539 5543 5546 5546 5548 5555 5560 5568 5573 5575